Weather History for Portland Troutdale, OR

Change the Weather History Date:

Friday, January 11, 2013

  Actual Average Record
Temperature  
Mean Temperature 34 °F 39 °F  
Max Temperature 40 °F 45 °F 59 °F (2014)
Min Temperature 27 °F 33 °F 10 °F (1963)
Degree Days  
Heating Degree Days 31 26  
Month to date heating degree days 287 290  
Cooling Degree Days 0 0  
Month to date cooling degree days 0 0  
Moisture  
Dew Point 30 °F    
Average Humidity 78    
Maximum Humidity 96    
Minimum Humidity 59    
Precipitation  
Precipitation 0.00 in 0.21 in 1.47 in (1972)
Month to date precipitation 0.85 2.44  
Year to date precipitation 0.85 2.44  
Snow  
Snow 0.00 in - - ()
Month to date snowfall 0.0  
Snow Depth 0.00 in    
Sea Level Pressure  
Sea Level Pressure 30.21 in    
Wind  
Wind Speed 2 mph (SW)    
Max Wind Speed 7 mph    
Max Gust Speed 8 mph    
Visibility 7 miles    
Events      
T = Trace of Precipitation, MM = Missing Value Source: NWS Daily Summary

Daily Weather History Graph

Daily Weather History Graph

Search for Another Location

Airport:

Trip Planner

Search our weather history database for the weather conditions in past years. The results will help you decide how hot, cold, wet, or windy it might be!

Date:

Astronomy

Jan. 11, 2013 Rise Set
Actual Time 7:47 AM PST 4:47 PM PST
Civil Twilight 7:14 AM PST 5:21 PM PST
Nautical Twilight 6:37 AM PST 5:58 PM PST
Astronomical Twilight 6:01 AM PST 6:34 PM PST
Moon 7:22 AM PST (1/11) 5:15 PM PST (1/11)
Length of Visible Light 10h 06m
Length of Day
9h 00m
New Moon, 0% of the Moon is Illuminated
Jan 11
New Moon
Jan 18
First Quarter
Jan 26
Full
Feb 3
Last Quarter
Feb 9
New

Hourly Weather History & Observations

Time (PST) Temp. Windchill Dew Point Humidity Pressure Visibility Wind Dir Wind Speed Gust Speed Precip Events Conditions
12:53 AM 35.1 °F - 32.0 °F 89% 30.11 in 4.0 mi Calm Calm - N/A   Mostly Cloudy
1:53 AM 34.0 °F - 32.0 °F 92% 30.12 in 7.0 mi Calm Calm - N/A   Overcast
2:14 AM 35.6 °F - 32.0 °F 87% 30.13 in 7.0 mi Calm Calm - N/A   Overcast
2:38 AM 35.6 °F - 32.0 °F 87% 30.13 in 5.0 mi Calm Calm - N/A   Mostly Cloudy
2:53 AM 33.1 °F - 32.0 °F 96% 30.13 in 4.0 mi Calm Calm - N/A   Overcast
3:26 AM 33.8 °F 29.6 °F 32.0 °F 93% 30.13 in 5.0 mi SW 4.6 mph - N/A   Overcast
3:35 AM 33.8 °F 30.8 °F 32.0 °F 93% 30.14 in 4.0 mi SW 3.5 mph - N/A   Overcast
3:45 AM 33.8 °F 30.8 °F 32.0 °F 93% 30.14 in 3.0 mi SW 3.5 mph - N/A   Overcast
3:53 AM 34.0 °F 29.8 °F 32.0 °F 92% 30.14 in 2.5 mi SW 4.6 mph - N/A   Overcast
4:01 AM 33.8 °F 29.6 °F 30.2 °F 87% 30.14 in 3.0 mi SW 4.6 mph - N/A   Overcast
4:05 AM 33.8 °F 29.6 °F 30.2 °F 87% 30.14 in 4.0 mi SW 4.6 mph - N/A   Overcast
4:53 AM 34.0 °F 29.8 °F 32.0 °F 92% 30.14 in 6.0 mi SW 4.6 mph - N/A   Mostly Cloudy
5:10 AM 33.8 °F 30.8 °F 30.2 °F 87% 30.14 in 5.0 mi West 3.5 mph - N/A   Overcast
5:40 AM 33.8 °F 29.6 °F 32.0 °F 93% 30.15 in 6.0 mi SW 4.6 mph - N/A   Overcast
5:53 AM 34.0 °F 28.8 °F 32.0 °F 92% 30.15 in 7.0 mi SW 5.8 mph - N/A   Overcast
6:07 AM 35.6 °F 32.8 °F 32.0 °F 87% 30.16 in 9.0 mi WSW 3.5 mph - N/A   Overcast
6:38 AM 35.6 °F - 30.2 °F 81% 30.17 in 9.0 mi Calm Calm - N/A   Overcast
6:53 AM 35.1 °F - 30.9 °F 85% 30.18 in 9.0 mi Calm Calm - N/A   Overcast
7:53 AM 34.0 °F 31.0 °F 30.9 °F 89% 30.21 in 8.0 mi WNW 3.5 mph - N/A   Overcast
8:53 AM 34.0 °F - 30.9 °F 89% 30.24 in 7.0 mi Calm Calm - N/A   Overcast
9:53 AM 35.1 °F - 30.0 °F 82% 30.26 in 10.0 mi Calm Calm - N/A   Mostly Cloudy
10:53 AM 36.0 °F - 30.9 °F 82% 30.27 in 10.0 mi Calm Calm - N/A   Overcast
11:00 AM 35.6 °F 32.8 °F 30.2 °F 81% 30.27 in 10.0 mi West 3.5 mph - N/A   Mostly Cloudy
11:53 AM 36.0 °F 32.1 °F 28.9 °F 76% 30.27 in 10.0 mi SW 4.6 mph - N/A   Partly Cloudy
12:53 PM 37.9 °F 35.5 °F 28.0 °F 68% 30.27 in 10.0 mi NW 3.5 mph - N/A   Clear
1:53 PM 39.0 °F 36.8 °F 28.0 °F 65% 30.28 in 10.0 mi South 3.5 mph - N/A   Clear
2:53 PM 39.0 °F - 27.0 °F 62% 30.29 in 10.0 mi Calm Calm - N/A   Partly Cloudy
3:53 PM 39.0 °F - 27.0 °F 62% 30.30 in 10.0 mi Calm Calm - N/A   Clear
4:53 PM 36.0 °F - 27.0 °F 70% 30.29 in 10.0 mi Calm Calm - N/A   Clear
5:53 PM 33.1 °F - 27.0 °F 78% 30.30 in 8.0 mi Calm Calm - N/A   Clear
6:53 PM 30.0 °F 26.5 °F 27.0 °F 88% 30.31 in 9.0 mi East 3.5 mph - N/A   Clear
7:53 PM 30.0 °F - 27.0 °F 88% 30.32 in 9.0 mi Calm Calm - N/A   Clear
8:53 PM 30.0 °F 26.5 °F 27.0 °F 88% 30.31 in 10.0 mi East 3.5 mph - N/A   Clear
9:53 PM 30.0 °F - 27.0 °F 88% 30.32 in 6.0 mi Calm Calm - N/A   Clear
10:53 PM 28.9 °F - 26.1 °F 89% 30.31 in 8.0 mi Calm Calm - N/A   Clear
11:53 PM 28.0 °F - 25.0 °F 88% 30.32 in 5.0 mi Calm Calm - N/A   Clear